Terminal Aerodrome Forecast
Issued by NWS

Home | Current Version | Previous Version | Text Only | Print | Product List | Glossary On
Versions: 1 2 3 4 5 6 7 8 9 10 11 12 13 14 15 16 17 18 19 20 21 22 23 24 25 26 27 28 29 30 31 32 33 34 35 36 37 38 39 40 41 42 43 44 45 46 47 48 49 50
000
FTUS42 KMFL 040543
TAFMIA
TAF
KMIA 040543Z 0406/0506 VRB02KT P6SM FEW030 SCT250
     FM041200 22010G18KT P6SM VCSH SCT025 BKN050
     FM041600 24010G18KT P6SM -SHRA SCT025 BKN050 PROB30 0416/0419
      TSRA SCT020CB BKN050=

USA.gov is the U.S. government's official web portal to all federal, state and local government web resources and services.